Weather Service Report


593 
ASUS41 KPHI 260910
RWRPHI

REGIONAL WEATHER ROUNDUP
NATIONAL WEATHER SERVICE MOUNT HOLLY NJ
500 AM EDT SUN OCT 26 2014

NOTE:  "FAIR" INDICATES FEW OR NO CLOUDS BELOW 12,000 FEET WITH NO
SIGNIFICANT WEATHER AND/OR OBSTRUCTIONS TO VISIBILITY.

 * = STATION DOES NOT REPORT PRECIPITATION (E.G. RAIN, SNOW, ETC.) 
        OR FOG.

NJZ015>026-261000-
SOUTHERN NEW JERSEY
  
CITY           SKY/WX    TMP DP  RH WIND       PRES   REMARKS
POMONA         PTCLDY    56  47  71 W9        29.61S                  
RIO GRANDE*    MOCLDY    59  48  67 W7        29.65R                  
MILLVILLE      PTCLDY    54  48  80 W7        29.63R                  
WRIGHTSTOWN    CLEAR     56  47  70 W7        29.58R                  
MOUNT HOLLY    CLEAR     58  45  62 W6        29.61R                  
TRENTON        PTCLDY    59  42  53 W7        29.60R                  

$$
NJZ001>014-261000-
NORTHERN NEW JERSEY
  
CITY           SKY/WX    TMP DP  RH WIND       PRES   REMARKS
SUSSEX         CLEAR     54  39  57 NW9       29.61R                  
ANDOVER*         N/A     51  39  63 N5        29.62R                  
MORRISTOWN     PTCLDY    57  41  54 NW6       29.61R                  
NEWARK         MOCLDY    58  44  60 NW17G24   29.59R                  
TETERBORO      CLEAR     54  43  66 NW5       29.58R                  
CALDWELL       PTCLDY    52  42  69 NW6       29.61R                  
SOMERVILLE     MOCLDY    49  44  83 CALM      29.59R                  
ALLAIRE*       PTCLDY    54  41  62 SW6       29.58S                  
TOMS RIVER*    MOCLDY    50  45  81 CALM      29.60R                  

$$
PAZ043-044-047-054-055-060>062-066>071-261000-
EASTERN PENNSYLVANIA
  
CITY           SKY/WX    TMP DP  RH WIND       PRES   REMARKS
PHILADELPHIA   PTCLDY    60  45  57 W10       29.63R                  
NORTH PHILA    CLEAR     61  41  47 NW10      29.63R                  
BLUE BELL      CLEAR     61  43  51 W5        29.61R                  
DOYLESTOWN     CLEAR     57  41  55 W8        29.60R                  
QUAKERTOWN*    CLEAR     57  41  54 W6        29.62S                  
POTTSTOWN      CLEAR     58  38  47 VRB7      29.64R                  
LANCASTER      CLEAR     58  34  40 NW20G25   29.67R                  
COATESVILLE    CLEAR     55  41  58 NW12      29.66R                  
READING        LGT RAIN  59  36  42 W12       29.63R                  
ALLENTOWN      CLOUDY    58  36  43 NW14G29   29.63R                  
MOUNT POCONO   CLEAR     47  35  63 NW12G18   29.61R                  
HAZLETON       CLOUDY    50  34  53 NW12      29.67R                  
WILKES BARRE   MOCLDY    53  36  52 NW10G21   29.64R                  

$$
DEZALL-MDZ008-012-015-019-020-261000-
DELAWARE AND EASTERN MARYLAND
  
CITY           SKY/WX    TMP DP  RH WIND       PRES   REMARKS
WILMINGTON     CLEAR     58  47  66 W10       29.65R                  
DOVER          CLEAR     57  49  74 W9        29.62S                  
GEORGETOWN     CLEAR     58  47  66 W7        29.67R                  
EASTON         CLEAR     60  51  73 W8        29.72R                  
PATUXENT       CLEAR     54  47  77 NW7       29.71R                  
OCEAN CITY     CLEAR     57  48  72 W7        29.67R                  
WALLOPS ISLAND PTCLDY    58  51  78 W6        29.69R                  
CAMBRIDGE      PTCLDY    59  46  63 W8        29.69R                  
SALISBURY      CLEAR     58  49  72 W6        29.68R                  

$$
PAZ001-021-NYZ056-072-MDZ011-DCZ001-261000-
OTHER NEARBY LOCATIONS
  
CITY           SKY/WX    TMP DP  RH WIND       PRES   REMARKS
HARRISBURG     CLEAR     57  33  40 NW21G33   29.68R                  
STATE COLLEGE  CLEAR     50  33  51 W9        29.72R                  
WILLIAMSPORT   PTCLDY    54  33  45 NW10      29.65S                  
BINGHAMTON     CLEAR     43  38  82 W10       29.60R                  
NEW YORK CITY  CLEAR     57  43  59 NW9       29.61R                  
BALTIMORE      PTCLDY    56  43  61 W5        29.69R                  
WASHINGTON DC  PTCLDY    66  40  38 NW10G17   29.72R                  

$$

Return to Home page


Western Regional Climate Center, wrcc@dri.edu